This is the latest recevied weather packets stored in our database for station/object DG9BJA-13. If no packets are shown the sender has not sent any weather packets the latest 10 day(s).
| Time | Temp. | Humidity | Pressure | Rain* | Wind** | Luminosity | Snow |
|---|---|---|---|---|---|---|---|
| 1777772776 | 13.89° C | 95% | 1012.9 hPa | 0 mm | - | 0 W/m² | - |
| 1777772176 | 13.89° C | 95% | 1013.1 hPa | 0 mm | - | 0 W/m² | - |
| 1777771576 | 13.89° C | 95% | 1013.1 hPa | 0 mm | - | 0 W/m² | - |
| 1777770976 | 14.44° C | 95% | 1013.1 hPa | 0 mm | - | 0 W/m² | - |
| 1777770376 | 14.44° C | 94% | 1013.1 hPa | 0 mm | - | 0 W/m² | - |
| 1777769776 | 14.44° C | 94% | 1013.4 hPa | 0 mm | - | 0 W/m² | - |
| 1777769177 | 14.44° C | 94% | 1013.4 hPa | 0 mm | - | 0 W/m² | - |
| 1777768576 | 14.44° C | 94% | 1013.1 hPa | 0 mm | - | 0 W/m² | - |
| 1777767976 | 14.44° C | 94% | 1013.3 hPa | 0 mm | - | 0 W/m² | - |
| 1777767376 | 15° C | 94% | 1013.3 hPa | 0 mm | - | 0 W/m² | - |
| 1777766776 | 15° C | 94% | 1013.6 hPa | 0 mm | - | 0 W/m² | - |
| 1777766176 | 15° C | 94% | 1013.6 hPa | 0 mm | - | 0 W/m² | - |
| 1777765576 | 15° C | 94% | 1013.6 hPa | 0.25 mm | - | 0 W/m² | - |
| 1777764977 | 15° C | 94% | 1014.1 hPa | 0.25 mm | - | 0 W/m² | - |
| 1777764377 | 15° C | 94% | 1014 hPa | 0.25 mm | - | 0 W/m² | - |
| 1777763776 | 15° C | 94% | 1014 hPa | 0.51 mm | - | 0 W/m² | - |
| 1777763176 | 15° C | 94% | 1014.1 hPa | 0.76 mm | - | 0 W/m² | - |
| 1777762576 | 15° C | 93% | 1014.5 hPa | 1.02 mm | - | 0 W/m² | - |
| 1777761977 | 15° C | 93% | 1014.5 hPa | 1.27 mm | - | 0 W/m² | - |
| 1777761376 | 15° C | 93% | 1014.7 hPa | 1.52 mm | - | 0 W/m² | - |
| 1777760776 | 15° C | 93% | 1014.8 hPa | 1.78 mm | - | 0 W/m² | - |
| 1777760176 | 15° C | 93% | 1014.8 hPa | 1.52 mm | - | 0 W/m² | - |
| 1777759576 | 15° C | 92% | 1015.2 hPa | 1.78 mm | - | 0 W/m² | - |
| 1777758977 | 15° C | 92% | 1015.6 hPa | 5.59 mm | - | 0 W/m² | - |
| 1777758377 | 15° C | 92% | 1015.6 hPa | 6.6 mm | - | 0 W/m² | - |
* Rain latest hour (hover to see other rain measurements)
** Current wind speed in m/s (hover to see current wind gust speed)